Location: *
(60.1759°S, 155.0663°W)
Time: 05:28:43
(UTC+00:00)

Meteor 2-13 Rocket - Pass Details

Date: 17 September 2019
Orbit: 935 x 958 km, 82.5° (Epoch: 18 October)

Event Time Altitude Azimuth Distance (km) Brightness Sun altitude
Rises 14:30:39 0° 195° (SSW) 3,645 7.6 -14.6°
Reaches altitude 10° 14:33:11 10° 198° (SSW) 2,697 6.9 -14.3°
Maximum altitude 14:39:13 58° 275° (W) 1,109 4.5 -13.6°
Drops below altitude 10° 14:45:13 10° 352° (N) 2,685 6.5 -12.9°
Sets 14:47:44 0° 355° (N) 3,626 7.3 -12.6°
